Flag for Guinea Weather past 2 weeks in Boké, Guinea

Now
84 °F

Passing clouds.


Feels Like: 91 °F
Forecast: N/A
Wind: 7 mph from West

Location: Conakry / Gbessia

Current Time: May 27, 2015 at 10:59:33 PM

Latest Report: May 27, 2015 at 10:00 PM


Visibility: N/A

Pressure: 29.89 "Hg

Humidity: 70%

Dew point: 73 °F

Location of BokéLocation

Historic Weather in Boké — Graph

°F

Boké temperature yesterday

Maximum temperature yesterday: 91 °F (at 1:00 PM)
Minimum temperature yesterday: 82 °F (at 12:00 AM)
Average temperature yesterday: 86 °F

Past Weeks' High & Low Weather Summary

 TemperatureHumidityPressure
High93 °F (May 19, 2:00 PM)100% (May 13, 3:00 AM)30.04 "Hg (May 13, 3:00 AM)
Low73 °F (May 13, 5:00 AM)46% (May 14, 3:00 PM)29.77 "Hg (May 14, 5:00 PM)
Average83 °F78%29.90 "Hg
* Reported May 12 10:00 PM — May 27 10:00 PM, Boké, Weather by CustomWeather, © 2015

Note: Actual official high and low records may vary slightly from our data, if they occured in-between our weather recording intervals... More about our weather records

Advertising

Boké weather history for previous 24 hours

 ConditionsComfort  
Time TempWeatherWind HumidityBarometerVisibility
10:00 PM
Wed, May 27
84 °FPassing clouds.7 mph70%29.89 "HgN/A
9:00 PM81 °FPassing clouds.7 mph84%29.89 "HgN/A
8:00 PMN/APassing clouds.7 mphN/A29.83 "HgN/A
7:00 PM86 °FScattered clouds.12 mph70%29.83 "HgN/A
6:00 PM88 °FSunny.12 mph59%29.89 "Hg10 mi
5:00 PM88 °FSunny.12 mph70%29.80 "Hg10 mi
4:00 PM90 °FPassing clouds.9 mph63%29.83 "HgN/A
3:00 PM88 °FScattered clouds.9 mph62%29.83 "HgN/A
2:00 PM90 °FScattered clouds.9 mph63%29.86 "HgN/A
1:00 PM88 °FScattered clouds.9 mph66%29.89 "HgN/A
12:00 PM88 °FScattered clouds.9 mph70%29.89 "HgN/A
11:00 AM86 °FScattered clouds.9 mph70%29.92 "HgN/A
10:00 AM84 °FPartly sunny.5 mph74%29.92 "HgN/A
9:00 AM81 °FBroken clouds.7 mph79%29.92 "HgN/A
8:00 AM81 °FBroken clouds.5 mph84%29.89 "HgN/A
2:00 AM77 °FPartly cloudy.7 mph89%N/AN/A
1:00 AM79 °FWarm.7 mph84%29.95 "HgN/A
12:00 AM81 °FPartly cloudy.16 mph79%29.95 "HgN/A
11:00 PM
Tue, May 26
84 °FWarm.9 mph79%29.95 "HgN/A
10:00 PM84 °FWarm.7 mph74%29.92 "HgN/A
Weather by CustomWeather, © 2015

See weather overviewHow to use our weather pages